SCP
0 0 0 0 0 0 0 0 0 0 0 0 0 0 0 0 0 0 0 0 1 1 1 0 0 0 0 0 0 0 0 0 0 0 0 0 0 0 0 0 0 0 0
0 0 0 0 0 0 0 0 0 0 0 0 0 0 0 0 0 0 0 0 0 1 1 1 0 0 0 0 0 0 0 0 0 0 0 0 0 0 0 0 0 0 0
0 0 0 0 0 0 0 0 0 0 0 0 0 0 0 0 0 0 0 0 0 0 0 0 0 0 0 0 0 0 0 0 0 0 0 0 0 0 0 0 0 0 0
0 0 0 0 0 0 0 0 0 0 0 0 0 0 0 0 0 0 0 0 0 0 0 0 0 0 0 0 0 0 0 0 0 0 0 0 0 0 0 0 0 0 0
0 0 0 0 0 0 0 0 0 0 0 0 0 0 0 0 0 0 0 0 0 0 0 0 0 0 0 0 0 0 0 0 0 0 0 0 0 0 0 0 0 0 0
0 0 0 0 0 0 0 0 0 0 0 0 0 0 0 0 0 0 0 0 0 0 0 0 0 0 0 0 0 0 0 0 0 0 0 0 0 0 0 0 0 0 0
0 0 0 0 0 0 0 0 0 0 0 0 0 0 0 0 0 0 0 0 0 0 0 0 0 0 0 0 0 0 0 0 0 0 0 0 0 0 0 0 0 0 0
0 0 0 0 0 0 0 0 0 0 0 0 0 0 0 0 0 0 0 0 0 0 0 0 0 0 0 0 0 0 0 0 0 0 0 0 0 0 0 0 0 0 0
0 0 0 0 0 0 0 0 0 0 0 0 0 0 0 0 0 0 0 0 0 0 0 0 0 0 0 0 0 0 0 0 0 0 0 0 0 0 0 0 0 0 0
0 0 0 0 0 0 0 0 0 0 0 0 0 0 0 0 0 0 0 0 0 0 0 0 0 0 0 0 0 0 0 0 0 0 0 0 0 0 0 0 0 0 0
0 0 0 0 0 0 0 0 0 0 0 0 0 0 0 0 0 0 0 0 0 0 0 0 0 0 0 0 0 0 0 0 0 0 0 0 0 0 0 0 0 0 0
0 0 0 0 0 0 0 0 0 0 0 0 0 0 0 0 0 0 0 0 0 0 0 0 0 0 0 0 0 0 0 0 0 0 0 0 0 0 0 0 0 0 0
0 0 0 0 0 0 0 0 0 0 0 0 0 0 0 0 0 0 0 0 0 0 0 0 0 0 0 0 0 0 0 0 0 0 0 0 0 0 0 0 0 0 0
0 0 0 0 0 0 0 0 0 0 0 0 0 0 0 0 0 0 0 0 0 0 0 0 0 0 0 0 0 0 0 0 0 0 0 0 0 0 0 0 0 0 0
0 0 0 0 0 0 0 0 0 0 0 0 0 0 0 0 0 0 0 0 0 0 0 0 0 0 0 0 0 0 0 0 0 0 0 0 0 0 0 0 0 0 0
0 0 0 0 0 0 0 0 0 0 0 0 0 0 0 0 0 0 0 0 0 0 0 0 0 0 0 0 0 0 0 0 0 0 0 0 0 0 0 0 0 0 0
0 0 0 0 0 0 0 0 0 0 0 0 0 0 0 0 0 0 0 0 0 0 0 0 0 0 0 0 0 0 0 0 0 0 0 0 0 0 0 0 0 0 0
0 0 0 0 0 0 0 0 0 0 0 0 0 0 0 0 0 0 0 0 0 0 0 0 0 0 0 0 0 0 0 0 0 0 0 0 0 0 0 0 0 0 0
0 0 0 0 0 0 0 0 0 0 0 0 0 0 -0 -0 -0 -0 0 0 0 0 0 0 0 0 0 0 0 0 0 0 0 0 0 0 0 0 0 0 0 0 0
0 0 0 0 0 0 0 0 0 0 0 0 0 0 -0 -0 -0 -0 -0 0 -0 0 0 0 0 0 0 0 0 0 0 0 0 0 0 0 0 0 0 0 0 0 0
0 0 0 0 0 0 0 0 0 0 0 0 0 0 0 -0 -0 -0 -0 -0 0 0 0 0 0 0 0 0 0 0 0 0 0 0 0 0 0 0 0 0 0 0 0
0 0 0 0 0 0 0 0 0 0 0 0 0 0 0 0 -0 -0 -0 -0 0 0 0 0 0 0 0 0 0 0 0 0 0 0 0 0 0 0 0 0 0 0 0
0 0 0 0 0 0 0 0 0 0 0 0 0 0 0 0 0 0 0 -0 0 0 0 0 0 0 0 0 0 0 0 0 0 0 0 0 0 0 0 0 0 0 0
0 0 0 0 0 0 0 0 0 0 0 0 0 0 0 0 0 0 0 0 -0 0 0 0 0 0 0 0 0 0 0 0 0 0 0 0 0 0 0 0 0 0 0
0 0 0 0 0 0 0 0 0 0 0 0 0 0 0 0 0 0 0 0 -0 -0 0 0 0 0 0 -0 -0 -0 0 0 0 0 0 0 0 0 0 0 0 0 0
0 0 0 0 0 0 0 0 0 0 0 0 0 0 0 0 0 0 0 0 -0 -0 0 0 0 -0 -0 -0 -0 -0 -0 0 0 0 0 0 0 0 0 0 0 0 0
Wind_Speed
3 3 2 2 3 2 3 2 2 2 2 1 1 2 3 3 3 2 2 7 8 8 9 8 8 8 8 7 7 7 7 6 5 5 4 4 3 3 3 3 3 3 2
2 3 3 3 3 3 3 3 3 2 2 2 1 2 3 4 4 3 3 5 8 8 9 9 9 9 9 8 8 7 7 6 6 6 5 4 4 4 3 3 3 3 3
3 3 3 3 3 3 3 2 3 2 2 2 2 2 4 4 5 5 4 2 4 7 9 9 9 9 9 9 8 8 7 7 7 7 6 6 5 5 5 5 4 4 3
2 2 2 3 3 3 3 3 3 3 3 3 2 1 3 3 5 5 4 3 2 3 6 9 9 9 8 8 8 8 8 8 7 7 7 7 6 6 6 5 5 4 4
1 2 2 1 2 2 3 4 3 3 4 4 3 2 2 3 3 5 5 4 4 3 3 7 9 9 9 8 8 8 8 8 7 7 7 6 6 6 5 5 5 4 4
1 1 1 2 2 2 2 3 4 3 3 4 4 4 2 2 3 3 4 4 4 4 4 4 4 6 9 8 8 7 8 7 7 7 7 7 6 6 6 5 5 5 5
1 1 1 1 1 2 2 4 4 5 3 4 4 3 3 3 3 2 3 3 3 4 4 4 3 3 3 8 8 8 7 7 6 6 6 6 6 6 5 5 5 5 5
1 1 1 1 1 1 2 3 5 3 2 3 3 4 2 2 2 2 2 3 3 3 4 4 4 4 3 2 5 8 7 7 6 6 6 6 5 5 5 5 5 4 4
3 2 1 1 2 2 2 2 3 4 4 2 2 4 4 4 2 2 2 2 3 3 3 3 4 4 3 3 3 5 7 7 6 6 6 6 5 5 5 4 4 4 4
4 4 3 3 3 2 2 2 2 2 4 3 1 1 2 4 4 3 1 2 2 3 3 3 4 3 3 2 3 6 7 6 6 6 6 6 5 5 5 4 4 4 4
5 5 4 4 4 3 2 2 2 3 2 3 2 1 2 2 2 4 3 2 2 2 2 3 3 3 2 2 2 4 6 6 6 6 6 6 5 5 5 5 5 5 5
4 5 5 4 4 4 3 3 4 4 3 3 3 2 2 2 2 3 4 4 2 1 2 2 2 2 2 2 3 6 5 5 5 5 5 5 5 5 5 5 6 6 6
3 4 4 4 4 4 4 4 5 5 4 4 3 2 2 1 2 3 4 4 2 1 1 1 1 2 2 1 2 5 4 4 4 3 4 4 4 5 5 5 5 6 6
3 3 4 5 5 5 5 5 5 5 5 5 5 4 3 2 2 3 4 5 4 1 1 1 0 1 1 1 2 3 2 3 3 2 2 2 2 3 3 4 4 5 5
3 5 5 5 6 6 6 5 5 5 5 5 5 5 4 3 3 2 3 4 5 4 1 1 1 1 1 1 3 2 2 4 4 3 3 2 1 1 2 2 3 4 5
4 5 6 6 6 6 6 6 5 5 7 6 5 6 5 3 3 3 3 2 3 4 3 1 1 2 2 2 3 2 3 5 6 5 5 4 3 2 1 1 2 3 4
4 5 5 6 6 6 6 6 6 6 7 6 6 7 6 5 4 4 3 3 3 3 4 1 0 1 1 1 0 1 1 2 2 6 6 5 4 4 3 2 0 1 2
5 5 6 6 7 7 6 7 6 6 6 6 6 7 6 6 6 5 4 4 3 3 4 3 1 1 0 1 0 0 0 1 2 5 7 6 5 5 4 3 2 2 2
6 6 7 7 6 6 6 6 6 6 6 6 6 7 6 7 6 5 5 4 3 3 3 4 2 1 1 1 2 2 2 1 1 2 4 6 6 6 6 5 4 3 3
7 7 6 6 6 6 6 6 6 6 6 6 6 6 5 6 5 5 5 4 4 5 4 4 3 2 1 1 2 2 2 2 1 0 1 2 4 6 7 7 6 6 5
6 6 6 7 6 6 5 5 5 6 5 5 5 5 5 7 7 5 4 4 4 4 4 4 3 2 2 2 1 1 1 2 2 1 0 1 1 1 3 5 7 7 6
6 6 6 6 7 5 7 8 5 4 4 4 4 4 5 7 8 8 7 5 5 4 4 3 2 2 1 1 1 1 1 2 2 2 0 1 0 2 3 3 6 8 7
5 5 5 5 6 6 8 8 7 4 4 3 3 3 4 5 6 5 6 7 6 5 4 4 3 1 1 1 0 1 1 0 2 2 1 1 1 2 3 4 7 8 8
4 4 4 4 5 6 9 9 8 6 5 4 4 4 4 4 4 4 5 5 5 4 2 2 2 2 2 2 2 2 1 1 2 1 1 0 1 2 2 2 5 6 8
4 3 3 4 5 5 9 9 7 4 4 4 4 4 3 3 5 7 6 5 5 4 4 2 1 3 4 4 3 1 1 2 1 2 0 1 1 1 2 3 3 5 7
3 4 4 4 4 4 8 9 6 3 4 3 3 3 4 4 5 6 4 3 3 3 4 5 4 4 2 2 3 3 2 2 1 2 2 1 1 0 2 3 2 2 3
Wind_Direction
180 171 177 190 199 195 194 200 214 219 199 185 172 154 138 129 122 117 133 137 136 140 140 147 147 142 135 132 132 135 139 139 137 136 133 131 131 133 136 136 141 148 156
176 170 171 189 201 203 200 196 187 182 181 165 143 125 127 131 128 131 122 121 117 124 130 131 131 133 131 129 124 122 121 118 115 112 112 109 104 101 103 106 107 111 117
173 172 176 190 201 206 199 186 168 162 171 149 133 135 132 137 138 138 125 123 121 120 123 122 121 122 125 125 123 119 115 111 107 102 99 98 96 93 94 94 93 92 86
163 164 173 196 197 185 181 175 170 159 158 136 133 129 123 131 141 133 126 122 108 111 111 111 112 112 115 120 119 116 113 109 106 102 96 92 89 84 81 78 75 72 70
118 148 173 207 199 174 171 181 170 160 147 138 135 121 114 121 130 133 128 126 123 114 104 106 104 103 103 106 110 110 110 107 102 99 95 91 86 81 77 73 67 62 57
96 145 193 210 186 168 166 157 153 149 144 142 130 112 99 113 115 124 135 132 129 123 112 104 98 94 97 98 100 106 109 106 101 95 90 85 80 74 70 68 63 54 48
104 153 203 198 178 179 174 155 144 136 138 130 115 105 73 68 88 102 121 126 124 122 115 108 100 88 88 89 95 99 99 101 99 95 90 84 78 73 68 62 59 56 49
38 76 136 143 133 138 141 144 138 141 158 159 141 131 121 65 52 68 88 113 121 118 114 113 102 94 83 75 92 94 91 89 93 92 87 81 75 69 66 60 53 50 42
37 34 50 88 84 108 142 149 144 148 160 168 151 145 151 165 138 59 70 85 107 109 107 108 105 99 95 78 75 84 89 84 85 85 83 77 72 65 60 52 44 34 26
38 40 55 75 77 88 109 124 117 138 147 155 154 89 130 139 145 140 81 63 88 103 117 124 118 106 101 95 99 97 90 86 83 80 79 77 71 63 56 45 36 28 19
35 36 47 66 71 75 84 89 85 95 129 149 144 128 99 90 106 135 148 137 73 66 97 118 128 126 123 116 118 113 102 93 90 85 79 75 68 62 54 46 36 28 21
36 34 49 54 62 64 64 69 76 81 82 97 105 112 128 138 152 139 147 152 136 83 71 96 123 131 139 143 149 130 123 115 105 96 88 80 70 61 54 46 40 33 25
46 33 44 54 60 62 63 65 68 66 66 76 79 84 88 104 140 127 131 136 128 101 81 67 122 144 154 151 158 149 146 139 126 107 90 80 70 62 56 48 41 32 25
48 41 50 54 55 60 64 68 71 62 64 67 66 65 68 55 80 116 136 141 130 98 86 132 49 165 166 173 195 176 177 175 164 144 121 105 87 72 65 55 46 37 25
55 45 50 55 56 57 60 66 71 65 64 63 63 63 62 48 56 74 108 140 143 144 161 194 172 198 189 194 211 193 208 223 204 194 189 185 165 125 74 55 45 36 31
56 55 54 55 57 58 59 67 68 64 68 61 62 63 55 45 52 59 80 85 111 136 144 192 202 196 182 198 214 214 223 226 217 201 197 200 201 194 169 80 39 30 27
59 64 66 62 58 59 59 66 64 66 68 62 59 64 55 51 54 49 59 69 76 102 122 119 155 152 145 188 267 259 226 218 214 210 205 205 205 208 203 199 248 348 5
56 61 68 67 64 63 62 66 69 65 70 68 63 64 55 58 49 42 53 61 70 86 125 131 76 52 61 198 252 323 322 204 216 219 213 210 207 213 218 222 230 258 309
59 57 63 65 62 63 64 64 69 69 68 67 66 67 60 65 57 48 52 56 60 73 93 118 98 46 28 36 43 16 14 358 260 209 212 219 220 221 225 230 237 249 269
62 60 60 62 61 63 64 64 67 68 66 62 61 63 62 66 67 61 59 56 69 72 75 91 86 54 35 21 61 43 5 343 310 256 220 217 221 229 233 236 241 246 254
69 64 63 57 53 55 51 60 63 69 68 63 55 54 57 64 65 64 72 67 75 78 78 82 76 54 31 30 19 350 18 339 323 335 353 284 232 240 245 244 246 247 249
62 61 59 59 54 50 47 58 70 70 68 69 63 49 50 47 46 49 58 70 91 101 102 95 87 88 43 0 5 19 50 35 325 310 73 292 196 247 251 242 242 243 247
67 66 62 66 60 43 49 60 69 79 74 72 69 60 55 43 38 38 41 45 48 74 120 134 133 170 187 210 130 22 36 196 243 259 112 305 315 271 261 252 247 244 247
72 72 70 70 65 44 45 57 65 69 68 68 73 82 79 43 31 48 54 46 34 28 57 133 173 208 210 200 181 182 205 290 297 294 125 157 305 290 297 295 266 251 250
70 71 78 72 63 34 37 52 65 66 64 55 55 66 78 60 46 62 66 52 32 8 19 26 253 249 247 230 190 119 46 55 2 317 344 144 272 311 309 298 290 270 260
84 82 75 67 69 47 37 48 61 78 73 57 43 39 50 58 50 61 71 64 35 344 345 348 350 344 322 293 211 179 173 153 177 285 272 156 241 8 322 297 291 290 283